This is the latest recevied weather packets stored in our database for station/object EB5AGF-13. If no packets are shown the sender has not sent any weather packets the latest 1 day(s).
| Time | Temp. | Humidity | Pressure | Rain* | Wind** | Luminosity | Snow |
|---|---|---|---|---|---|---|---|
| 1778058135 | 20.56° C | 73% | 1008.4 hPa | 0 mm | 2.68 m/s, 31° | 89 W/m² | - |
| 1778057830 | 20° C | 75% | 1008.5 hPa | 0 mm | 2.24 m/s, 53° | 462 W/m² | - |
| 1778057527 | 20° C | 74% | 1008.3 hPa | 0 mm | 2.24 m/s, 350° | 118 W/m² | - |
| 1778057224 | 20.56° C | 73% | 1008.1 hPa | 0 mm | 2.24 m/s, 80° | 161 W/m² | - |
| 1778056918 | 20.56° C | 72% | 1008.4 hPa | 0 mm | 1.34 m/s, 19° | 508 W/m² | - |
| 1778056615 | 20.56° C | 72% | 1008.3 hPa | 0 mm | 2.68 m/s, 63° | 447 W/m² | - |
| 1778056311 | 20.56° C | 72% | 1008.1 hPa | 0 mm | 1.79 m/s, 44° | 414 W/m² | - |
| 1778056007 | 20.56° C | 73% | 1008 hPa | 0 mm | 1.34 m/s, 71° | 194 W/m² | - |
| 1778055703 | 20.56° C | 71% | 1008 hPa | 0 mm | 2.68 m/s, 47° | 409 W/m² | - |
| 1778055399 | 20.56° C | 72% | 1008.2 hPa | 0 mm | 1.34 m/s, 66° | 391 W/m² | - |
| 1778055092 | 20° C | 73% | 1008.1 hPa | 0 mm | 2.24 m/s, 18° | 243 W/m² | - |
| 1778054792 | 20° C | 72% | 1008.2 hPa | 0 mm | 1.34 m/s, 16° | 102 W/m² | - |
| 1778054491 | 20.56° C | 72% | 1008.3 hPa | 0 mm | 1.79 m/s, 315° | 180 W/m² | - |
| 1778054191 | 20° C | 73% | 1008.1 hPa | 0 mm | 1.79 m/s, 43° | 332 W/m² | - |
| 1778053892 | 20° C | 72% | 1008.4 hPa | 0 mm | 1.79 m/s, 38° | 302 W/m² | - |
| 1778053591 | 20° C | 71% | 1008 hPa | 0 mm | 1.34 m/s, 70° | 297 W/m² | - |
| 1778053287 | 20° C | 69% | 1008 hPa | 0 mm | 1.79 m/s, 50° | 263 W/m² | - |
| 1778052983 | 20° C | 70% | 1008 hPa | 0 mm | 0.89 m/s, 69° | 233 W/m² | - |
| 1778052679 | 19.44° C | 70% | 1008.3 hPa | 0 mm | 1.79 m/s, 335° | 230 W/m² | - |
| 1778052375 | 20° C | 69% | 1008.2 hPa | 0 mm | 1.79 m/s, 53° | 167 W/m² | - |
| 1778052071 | 19.44° C | 67% | 1008.3 hPa | 0 mm | 0.89 m/s, 2° | 212 W/m² | - |
| 1778051767 | 18.89° C | 66% | 1008.2 hPa | 0 mm | 1.79 m/s, 355° | 189 W/m² | - |
| 1778051463 | 18.89° C | 65% | 1008.5 hPa | 0 mm | 2.24 m/s, 14° | 94 W/m² | - |
| 1778051159 | 18.89° C | 61% | 1008.4 hPa | 0 mm | 2.24 m/s, 353° | 116 W/m² | - |
| 1778050855 | 18.89° C | 59% | 1008.4 hPa | 0 mm | 1.79 m/s, 12° | 213 W/m² | - |
* Rain latest hour (hover to see other rain measurements)
** Current wind speed in m/s (hover to see current wind gust speed)